| time (UTC) | temp F | wind direction | speed MPH | gust MPH | rain 1hr in | rain 24hr in | rain mn in | humidity % | barometer mb |
| 20260906233102 | 62 | 360 | 1.0 | 6.0 | 0.00 | 0.20 | 0.07 | 84 | 1016.1 |
| 20260906233055 | 61 | 360 | 2.0 | 5.0 | 0.00 | 0.20 | 0.07 | 84 | 1013.3 |
| 20260906231603 | 60 | 5 | 3.0 | 8.0 | 0.00 | 0.20 | 0.07 | 85 | 1016.3 |
| 20260906231555 | 60 | 5 | 3.0 | 8.0 | 0.00 | 0.20 | 0.07 | 86 | 1013.4 |
| 20260906230104 | 61 | 355 | 5.0 | 11.0 | 0.00 | 0.20 | 0.07 | 85 | 1016.3 |
| 20260906230058 | 61 | 355 | 3.0 | 11.0 | 0.00 | 0.20 | 0.07 | 86 | 1013.4 |
| 20260906224605 | 61 | 341 | 2.0 | 5.0 | 0.00 | 0.20 | 0.07 | 85 | 1016.4 |
| 20260906224558 | 61 | 340 | 2.0 | 5.0 | 0.00 | 0.20 | 0.07 | 85 | 1013.5 |
| 20260906223104 | 61 | 355 | 2.0 | 6.0 | 0.00 | 0.20 | 0.07 | 85 | 1016.6 |
| 20260906223059 | 61 | 355 | 2.0 | 6.0 | 0.00 | 0.20 | 0.07 | 86 | 1013.5 |
| 20260906221606 | 61 | 337 | 2.0 | 4.0 | 0.00 | 0.20 | 0.07 | 86 | 1016.6 |
| 20260906221504 | 61 | 334 | 2.0 | 4.0 | 0.00 | 0.20 | 0.07 | 85 | 1013.7 |
| 20260906220105 | 61 | 0 | 1.0 | 4.0 | 0.00 | 0.20 | 0.07 | 85 | 1016.8 |
| 20260906220005 | 61 | 104 | 1.0 | 4.0 | 0.00 | 0.20 | 0.07 | 85 | 1014.0 |
| 20260906214602 | 61 | 104 | 0.0 | 3.0 | 0.00 | 0.20 | 0.07 | 84 | 1017.2 |
| 20260906214509 | 61 | 104 | 0.0 | 3.0 | 0.00 | 0.20 | 0.07 | 85 | 1014.1 |
| 20260906213107 | 61 | 0 | 0.0 | 3.0 | 0.00 | 0.20 | 0.07 | 85 | 1017.1 |
| 20260906213019 | 61 | 104 | 0.0 | 3.0 | 0.00 | 0.20 | 0.07 | 85 | 1014.1 |
| 20260906211602 | 60 | 0 | 0.0 | 3.0 | 0.00 | 0.20 | 0.07 | 85 | 1017.0 |
| 20260906211533 | 60 | 104 | 0.0 | 2.0 | 0.00 | 0.20 | 0.07 | 85 | 1014.1 |
| 20260906210130 | 60 | 0 | 0.0 | 3.0 | 0.00 | 0.20 | 0.07 | 85 | 1016.8 |
| 20260906210020 | 60 | 104 | 0.0 | 3.0 | 0.00 | 0.20 | 0.07 | 86 | 1014.0 |
| 20260906204607 | 60 | 0 | 1.0 | 6.0 | 0.00 | 0.20 | 0.07 | 86 | 1016.9 |
| 20260906204531 | 60 | 104 | 1.0 | 6.0 | 0.00 | 0.20 | 0.07 | 87 | 1013.9 |
| 20260906203102 | 60 | 101 | 1.0 | 4.0 | 0.00 | 0.20 | 0.07 | 86 | 1016.8 |
| 20260906203030 | 60 | 101 | 0.0 | 4.0 | 0.00 | 0.20 | 0.07 | 87 | 1013.9 |
| 20260906201610 | 60 | 101 | 3.0 | 7.0 | 0.00 | 0.20 | 0.07 | 86 | 1017.0 |
| 20260906201531 | 60 | 101 | 3.0 | 7.0 | 0.00 | 0.20 | 0.07 | 87 | 1013.8 |
| 20260906200100 | 59 | 96 | 1.0 | 4.0 | 0.00 | 0.20 | 0.07 | 87 | 1017.1 |
| 20260906200047 | 59 | 96 | 1.0 | 4.0 | 0.00 | 0.20 | 0.07 | 88 | 1013.9 |
| 20260906194610 | 60 | 80 | 2.0 | 4.0 | 0.00 | 0.20 | 0.07 | 87 | 1017.1 |
| 20260906194545 | 60 | 80 | 1.0 | 4.0 | 0.00 | 0.20 | 0.07 | 88 | 1014.1 |
| 20260906193109 | 59 | 78 | 1.0 | 5.0 | 0.00 | 0.20 | 0.07 | 88 | 1014.2 |
| 20260906193103 | 59 | 78 | 1.0 | 5.0 | 0.00 | 0.20 | 0.07 | 87 | 1017.4 |
| 20260906191606 | 59 | 0 | 0.0 | 4.0 | 0.00 | 0.20 | 0.07 | 88 | 1017.5 |
| 20260906190103 | 59 | 73 | 1.0 | 4.0 | 0.00 | 0.20 | 0.07 | 88 | 1017.8 |
| 20260906190001 | 59 | 73 | 1.0 | 4.0 | 0.00 | 0.20 | 0.07 | 88 | 1014.6 |
| 20260906184604 | 59 | 67 | 3.0 | 8.0 | 0.00 | 0.20 | 0.07 | 87 | 1017.8 |
| 20260906184516 | 59 | 67 | 3.0 | 8.0 | 0.00 | 0.20 | 0.07 | 88 | 1014.7 |
| 20260906183104 | 59 | 78 | 3.0 | 9.0 | 0.00 | 0.20 | 0.07 | 87 | 1017.9 |
| 20260906183027 | 59 | 77 | 3.0 | 8.0 | 0.00 | 0.20 | 0.07 | 87 | 1014.7 |
| 20260906181607 | 59 | 42 | 5.0 | 12.0 | 0.00 | 0.20 | 0.07 | 86 | 1017.8 |
| 20260906181542 | 59 | 56 | 4.0 | 12.0 | 0.00 | 0.20 | 0.07 | 86 | 1014.7 |
| 20260906180109 | 60 | 34 | 6.0 | 14.0 | 0.00 | 0.20 | 0.07 | 84 | 1017.7 |
| 20260906180034 | 60 | 34 | 6.0 | 14.0 | 0.00 | 0.20 | 0.07 | 85 | 1014.6 |
| 20260906174606 | 60 | 56 | 6.0 | 15.0 | 0.00 | 0.20 | 0.07 | 84 | 1017.5 |
| 20260906174547 | 60 | 69 | 6.0 | 15.0 | 0.00 | 0.20 | 0.07 | 85 | 1014.4 |
| 20260906173108 | 58 | 50 | 7.0 | 14.0 | 0.00 | 0.20 | 0.07 | 86 | 1017.8 |
| 20260906173043 | 58 | 34 | 8.0 | 14.0 | 0.00 | 0.20 | 0.07 | 86 | 1014.7 |
| 20260906171608 | 57 | 24 | 6.0 | 13.0 | 0.00 | 0.20 | 0.07 | 86 | 1018.1 |
| 20260906171600 | 57 | 22 | 7.0 | 13.0 | 0.00 | 0.20 | 0.07 | 87 | 1015.2 |
| 20260906170111 | 57 | 347 | 7.0 | 13.0 | 0.00 | 0.20 | 0.07 | 87 | 1018.1 |
| 20260906170043 | 57 | 23 | 7.0 | 13.0 | 0.00 | 0.20 | 0.07 | 87 | 1015.2 |
| 20260906164612 | 57 | 70 | 7.0 | 13.0 | 0.00 | 0.20 | 0.07 | 89 | 1017.7 |
| 20260906164543 | 57 | 70 | 6.0 | 13.0 | 0.00 | 0.20 | 0.07 | 89 | 1014.9 |
| 20260906163109 | 55 | 71 | 6.0 | 11.0 | 0.00 | 0.20 | 0.07 | 91 | 1018.1 |
| 20260906163038 | 55 | 66 | 6.0 | 11.0 | 0.00 | 0.20 | 0.07 | 91 | 1015.2 |
| 20260906161609 | 55 | 13 | 3.0 | 5.0 | 0.00 | 0.20 | 0.07 | 91 | 1019.3 |
| 20260906160104 | 54 | 360 | 2.0 | 5.0 | 0.01 | 0.20 | 0.07 | 92 | 1019.4 |
| 20260906154604 | 54 | 346 | 3.0 | 11.0 | 0.02 | 0.20 | 0.07 | 92 | 1019.4 |
| 20260906153103 | 54 | 331 | 4.0 | 9.0 | 0.02 | 0.20 | 0.07 | 93 | 1019.5 |
| 20260906151601 | 53 | 347 | 3.0 | 6.0 | 0.03 | 0.20 | 0.07 | 92 | 1019.9 |
| 20260906150106 | 53 | 350 | 2.0 | 8.0 | 0.03 | 0.19 | 0.06 | 92 | 1020.0 |
| 20260906144602 | 53 | 331 | 3.0 | 10.0 | 0.05 | 0.18 | 0.05 | 92 | 1019.8 |
| 20260906143112 | 53 | 348 | 6.0 | 16.0 | 0.05 | 0.18 | 0.05 | 92 | 1020.0 |
| 20260906141600 | 53 | 349 | 7.0 | 15.0 | 0.04 | 0.17 | 0.04 | 92 | 1020.0 |
| 20260906140106 | 54 | 312 | 7.0 | 14.0 | 0.03 | 0.16 | 0.03 | 92 | 1020.0 |
| 20260906134603 | 54 | 304 | 8.0 | 14.0 | 0.00 | 0.15 | 0.00 | 91 | 1020.2 |
| 20260906133105 | 55 | 317 | 4.0 | 8.0 | 0.00 | 0.15 | 0.00 | 91 | 1019.9 |
| 20260906131603 | 55 | 320 | 3.0 | 7.0 | 0.00 | 0.15 | 0.00 | 90 | 1019.9 |
| 20260906130105 | 55 | 321 | 2.0 | 9.0 | 0.00 | 0.15 | 0.00 | 89 | 1019.8 |
| 20260906124559 | 55 | 328 | 3.0 | 6.0 | 0.00 | 0.20 | 0.00 | 89 | 1020.0 |
| 20260906123103 | 56 | 340 | 5.0 | 10.0 | 0.00 | 0.20 | 0.00 | 90 | 1019.9 |
| 20260906121604 | 55 | 352 | 5.0 | 10.0 | 0.00 | 0.20 | 0.00 | 90 | 1019.8 |
| 20260906120114 | 56 | 320 | 5.0 | 11.0 | 0.00 | 0.20 | 0.00 | 89 | 1019.7 |
| 20260906114604 | 57 | 313 | 4.0 | 11.0 | 0.00 | 0.21 | 0.00 | 87 | 1019.6 |
| 20260906113103 | 56 | 360 | 4.0 | 9.0 | 0.00 | 0.21 | 0.00 | 88 | 1019.4 |
| 20260906111617 | 57 | 311 | 2.0 | 11.0 | 0.00 | 0.21 | 0.00 | 87 | 1019.9 |
| 20260906110105 | 57 | 68 | 4.0 | 10.0 | 0.00 | 0.21 | 0.00 | 86 | 1019.3 |
| 20260906104604 | 57 | 61 | 5.0 | 10.0 | 0.00 | 0.21 | 0.00 | 88 | 1019.3 |
| 20260906103102 | 57 | 74 | 4.0 | 14.0 | 0.00 | 0.21 | 0.00 | 88 | 1019.3 |
| 20260906101607 | 57 | 24 | 7.0 | 13.0 | 0.00 | 0.21 | 0.00 | 87 | 1019.2 |
| 20260906100103 | 56 | 28 | 5.0 | 13.0 | 0.00 | 0.21 | 0.00 | 87 | 1019.3 |
| 20260906094604 | 56 | 5 | 6.0 | 13.0 | 0.00 | 0.21 | 0.00 | 88 | 1019.4 |
| 20260906093105 | 56 | 17 | 7.0 | 12.0 | 0.00 | 0.21 | 0.00 | 89 | 1019.4 |
| 20260906091615 | 56 | 20 | 7.0 | 13.0 | 0.00 | 0.21 | 0.00 | 87 | 1019.3 |
| 20260906084606 | 55 | 5 | 8.0 | 15.0 | 0.00 | 0.21 | 0.00 | 90 | 1019.1 |
| 20260906083106 | 55 | 26 | 7.0 | 14.0 | 0.00 | 0.21 | 0.00 | 90 | 1019.3 |
| 20260906081603 | 55 | 339 | 7.0 | 18.0 | 0.00 | 0.21 | 0.00 | 90 | 1019.7 |
| 20260906080110 | 55 | 347 | 8.0 | 15.0 | 0.00 | 0.21 | 0.00 | 90 | 1020.2 |
| 20260906074603 | 56 | 340 | 5.0 | 11.0 | 0.00 | 0.21 | 0.00 | 91 | 1020.8 |
| 20260906073102 | 56 | 360 | 6.0 | 13.0 | 0.00 | 0.21 | 0.00 | 90 | 1020.9 |
| 20260906071604 | 56 | 5 | 4.0 | 9.0 | 0.00 | 0.21 | 0.00 | 90 | 1021.2 |
| 20260906064601 | 55 | 334 | 4.0 | 10.0 | 0.00 | 0.21 | 0.00 | 92 | 1021.1 |
| 20260906063102 | 55 | 326 | 3.0 | 10.0 | 0.00 | 0.21 | 0.00 | 91 | 1021.5 |
| 20260906061605 | 55 | 336 | 5.0 | 12.0 | 0.01 | 0.21 | 0.00 | 91 | 1021.2 |
| 20260906054607 | 56 | 28 | 6.0 | 11.0 | 0.04 | 0.21 | 0.21 | 91 | 1021.0 |
| 20260906053100 | 56 | 321 | 8.0 | 14.0 | 0.04 | 0.21 | 0.21 | 90 | 1021.1 |
| 20260906051615 | 56 | 311 | 6.0 | 13.0 | 0.03 | 0.20 | 0.20 | 89 | 1021.3 |
| 20260906050106 | 57 | 340 | 6.0 | 12.0 | 0.01 | 0.17 | 0.17 | 89 | 1020.9 |
| 20260906044605 | 57 | 340 | 5.0 | 10.0 | 0.01 | 0.17 | 0.17 | 89 | 1020.5 |
| 20260906043100 | 57 | 338 | 4.0 | 8.0 | 0.01 | 0.17 | 0.17 | 89 | 1020.9 |
| 20260906041605 | 57 | 319 | 3.0 | 10.0 | 0.01 | 0.17 | 0.17 | 88 | 1021.1 |
| 20260906040113 | 57 | 352 | 4.0 | 15.0 | 0.00 | 0.16 | 0.16 | 87 | 1020.8 |
| 20260906034603 | 57 | 11 | 6.0 | 14.0 | 0.00 | 0.16 | 0.16 | 87 | 1019.6 |
| 20260906033106 | 58 | 336 | 8.0 | 16.0 | 0.06 | 0.16 | 0.16 | 86 | 1019.4 |
| 20260906031607 | 58 | 348 | 4.0 | 10.0 | 0.08 | 0.16 | 0.16 | 87 | 1019.4 |
| 20260906030118 | 58 | 26 | 5.0 | 12.0 | 0.08 | 0.16 | 0.16 | 85 | 1019.5 |
| 20260906024625 | 59 | 12 | 6.0 | 12.0 | 0.08 | 0.16 | 0.16 | 83 | 1019.1 |
| 20260906023104 | 63 | 344 | 5.0 | 11.0 | 0.02 | 0.10 | 0.10 | 69 | 1019.3 |
| 20260906021559 | 63 | 321 | 7.0 | 15.0 | 0.00 | 0.08 | 0.08 | 67 | 1019.1 |
| 20260906020113 | 63 | 5 | 5.0 | 13.0 | 0.00 | 0.08 | 0.08 | 66 | 1018.1 |
| 20260906014612 | 64 | 16 | 7.0 | 14.0 | 0.00 | 0.08 | 0.08 | 66 | 1018.3 |
| 20260906014547 | 64 | 29 | 7.0 | 14.0 | 0.00 | 0.08 | 0.08 | 66 | 1015.4 |
| 20260906013103 | 64 | 12 | 6.0 | 14.0 | 0.00 | 0.08 | 0.08 | 64 | 1018.3 |
| 20260906013043 | 64 | 24 | 6.0 | 14.0 | 0.00 | 0.08 | 0.08 | 65 | 1015.4 |
| 20260906011603 | 65 | 29 | 6.0 | 12.0 | 0.00 | 0.08 | 0.08 | 62 | 1018.2 |
| 20260906011543 | 65 | 348 | 6.0 | 12.0 | 0.00 | 0.08 | 0.08 | 62 | 1015.3 |
| 20260906010119 | 66 | 11 | 6.0 | 14.0 | 0.00 | 0.08 | 0.08 | 60 | 1018.3 |
| 20260906010050 | 66 | 18 | 6.0 | 12.0 | 0.00 | 0.08 | 0.08 | 60 | 1015.4 |
| 20260906004610 | 67 | 17 | 7.0 | 13.0 | 0.00 | 0.08 | 0.08 | 58 | 1018.1 |
| 20260906004549 | 67 | 35 | 6.0 | 13.0 | 0.00 | 0.08 | 0.08 | 58 | 1015.3 |
| 20260906003117 | 68 | 17 | 4.0 | 11.0 | 0.00 | 0.08 | 0.08 | 57 | 1018.2 |
| 20260906003052 | 68 | 16 | 5.0 | 11.0 | 0.00 | 0.08 | 0.08 | 58 | 1015.1 |
| 20260906001608 | 68 | 27 | 5.0 | 11.0 | 0.00 | 0.08 | 0.08 | 57 | 1018.1 |
| 20260906001549 | 68 | 27 | 4.0 | 9.0 | 0.00 | 0.08 | 0.08 | 58 | 1015.2 |
| 20260906000109 | 70 | 11 | 6.0 | 12.0 | 0.00 | 0.08 | 0.08 | 54 | 1018.4 |
| 20260906000050 | 70 | 355 | 6.0 | 11.0 | 0.00 | 0.08 | 0.08 | 54 | 1015.4 |
| 20260905234609 | 72 | 348 | 6.0 | 11.0 | 0.00 | 0.08 | 0.08 | 50 | 1018.4 |
| 20260905234551 | 72 | 355 | 7.0 | 12.0 | 0.00 | 0.08 | 0.08 | 51 | 1015.5 |